Regional Weather Roundup
Issued by NWS

Home | Current Version | Previous Version | Text Only | Print | Product List | Glossary On
Versions: 1 2 3 4 5 6 7 8 9 10 11 12 13 14 15 16 17 18 19 20 21 22 23 24 25 26 27 28 29 30 31 32 33 34 35 36 37 38 39 40 41 42 43 44 45 46 47 48 49 50
000
ASUS42 KFFC 280710
RWRGA
WEATHER ROUNDUP FOR GEORGIA
NATIONAL WEATHER SERVICE PEACHTREE CITY GA
300 AM EDT FRI APR 28 2017

NOTE: "FAIR" INDICATES FEW OR NO CLOUDS BELOW 12,000 FEET WITH NO
SIGNIFICANT WEATHER AND/OR OBSTRUCTIONS TO VISIBILITY.

* = USE WITH CAUTION. THE STATIONS MARKED WITH AN ASTERISK MAY NOT
REPORT WEATHER SUCH AS PRECIPITATION, FOG, OR THUNDER AND ARE NOT
QUALITY CONTROLLED BY NWS.

THE REMARK "TC" DENOTES TEMPERATURE READING IN DEGREES CELSIUS.

GAZ001>058-280800-
NORTH GEORGIA

CITY           SKY/WX    TMP DP  RH WIND       PRES   REMARKS
ATLANTA        MOCLDY    67  66  97 SW5       29.93S FOG
ATHENS         CLOUDY    64  64 100 SE3       29.94S
CHAMBLEE       CLOUDY    66  65  96 CALM      29.93S FOG
PEACHTREE CITY CLOUDY    67  67 100 CALM      29.93S
ROME           CLEAR     58  55  90 NW3       29.91S
WEST ATLANTA   FOG       67  67 100 SW6       29.93R VSB 1
GAINESVILLE    CLOUDY    67  66  97 NW3       29.95F
CARTERSVILLE   CLEAR     56  55  97 CALM      29.92S


CITY           SKY/WX    TMP DP  RH WIND       PRES   REMARKS
DALTON*        CLEAR     55  55 100 CALM      29.92S
MARIETTA       CLOUDY    66  65  96 SW5       29.94R
CANTON*        CLEAR     59  55  88 CALM      29.95S
$$

GAZ059>098-102>109-280800-
CENTRAL GEORGIA

CITY           SKY/WX    TMP DP  RH WIND       PRES   REMARKS
AUGUSTA-BUSH   CLEAR     66  65  96 CALM      29.93S FOG
AUGUSTA-DANIEL CLEAR     71  65  81 SE3       29.94S
COLUMBUS       CLOUDY    71  69  93 SW3       29.91S FOG
MACON          CLOUDY    68  66  93 CALM      29.93R FOG
ROBINS AFB     MOCLDY    68  68 100 SE5       29.92R


CITY           SKY/WX    TMP DP  RH WIND       PRES   REMARKS
LAGRANGE*      CLOUDY    71  71 100 S3        29.92S FOG
SYLVANIA*      CLEAR    N/A N/A N/A CALM      29.96S
MILLEDGEVILLE* FOG       68  68 100 CALM      29.92S VSB 1
$$

GAZ099>101-110>166-280800-
SOUTH GEORGIA

CITY           SKY/WX    TMP DP  RH WIND       PRES   REMARKS
SAVANNAH       CLOUDY    72  68  87 CALM      29.97R
VALDOSTA       FOG       70  70 100 CALM      29.95R VSB 1/2
ALMA           PTCLDY    66  66 100 CALM      29.95S FOG
ST SIMONS      PTCLDY    73  70  90 S3        29.96R
FT STEWART     CLOUDY    71  68  89 CALM      29.94R
ALBANY         CLEAR     71  70  96 S5        29.94F FOG
HUNTER AFB     CLOUDY    74  74 100 CALM      29.94R
MOODY AFB      CLOUDY    72  70  94 SW7       29.93S
BRUNSWICK      FOG       70  70 100 CALM      29.97R VSB 1/4


CITY           SKY/WX    TMP DP  RH WIND       PRES   REMARKS
BAINBRIDGE*    PTCLDY    72  70  94 S5        29.93F
MOULTRIE*      CLOUDY    72  70  94 SW5       29.95F FOG
VIDALIA*       CLEAR     72  68  88 CALM      29.96R
WAYCROSS*      CLEAR     70  70  99 CALM      29.96R
DOUGLAS*       CLEAR     70  68  94 CALM      29.96F
$$



USA.gov is the U.S. government's official web portal to all federal, state and local government web resources and services.